Location: Antioch Baptist Church
(32.6696°N, 85.7327°W)
Time: 12:11:41
(UTC+00:00)

CZ-2C R/B - Pass Details

Date: 14 July 2020
Orbit: 667 x 785 km, 98.2° (Epoch: 09 August)

Event Time Altitude Azimuth Distance (km) Brightness Sun altitude
Rises 08:55:57 0° 27° (NNE) 3,089 6.9 -19.7°
Reaches altitude 10° 08:58:34 10° 40° (NE) 2,149 6.1 -19.3°
Maximum altitude 09:02:27 26° 96° (E) 1,346 4.2 -18.7°
Drops below altitude 10° 09:06:14 10° 152° (SSE) 2,097 4.6 -18.2°
Enters shadow 09:07:45 - 161° (SSE) 2,623 5.0 -17.9°
